Matala Airport

Jump to: basic info | weather | runways | comments

Related pages: nearby airports | nearby navaids | notams | map

Basic information (top)

Codes: FN18
Location: lon -14.727500, lat 15.014000, elev 4,120 ft / 1,256 m msl
Status: small_airport

Weather (top)

Current conditions for Lubango Airport 84nm (156km) W (rec'd 2014/11/22 10:00Z):

FNUB 221000Z 07006KT 9999 FEW025 23/13 Q1025

Airport forecast for Lubango Airport 84nm (156km) W (rec'd 2014/11/22 12:00Z):

TAF FNUB 221100Z 2212/2224 02010KT 9999 SCT025 FEW025CB 
      TEMPO 2212/2218 VRB03KT 6000 -TSRA SCT010 FEW025CB 
      BECMG 2218/2220 BKN020

Runways (top)

10/28: 8,015 x 98 ft (2,443 x 30 m) — paved — not lighted

Latest comments (top)

No comments yet for Matala Airport

More... (top)

See also NOTAMs and nearby airports and navaids, or visit the Matala Airport page at the main OurAirports website..